Tracking 30918 objects as of 2-Jul-2025
HD Live streaming from Space Station
objects crossing your sky now

CZ-4 R/B

Track CZ-4 R/B now!
10-day predictions
CZ-4 R/B is classified as:


NORAD ID: 29507
Int'l Code: 2006-046C
Perigee: 506.0 km
Apogee: 556.8 km
Inclination: 97.6 °
Period: 95.1 minutes
Semi major axis: 6902 km
RCS: 4.43 m2 (large)
Launch date: October 23, 2006
Source: People's Republic of China (PRC)
Launch site: Taiyaun Space Center, China (TSC)

Note: This is a ROCKET BODY
Your satellite tracking list
STARLINK-1575
Track 1 satellite(s)




NASA's NSSDC Master Catalog

Two Line Element Set (TLE):
1 29507U 06046C   25182.81156529  .00003570  00000-0  19758-3 0  9992
2 29507  97.5941 223.3881 0036774  56.5931 303.8809 15.13927517 22054
Source of the keplerian elements: AFSPC